Showing default

TIGER-8, 59120

Orbit data source: Space-Track

TIGER-8, 59120 is a payload satellite owned by OQ Tech (RW) in SSO that was launched on Mon, 04 Mar 2024 UTC via an FALCON 9 launch vehicle from the Air Force Western Test Range (AFWTR). Payload-class satellites include a variety of spacecraft equipped with specific instruments for various scientific and technological missions. These include communications satellites like Starlink; space stations such as the ISS; scientific satellites like the Hubble; Earth observation satellites from companies like Planet Labs, Umbra, and HawkEye 360; GPS; miniature CubeSats for education and research; and military/defense satellites.

Loading next visibility...
Identifier
59120, 2024-043Y
Orbit
SSO
Country
Flag of RWRW / RWA
Related business
Manufacturer
NanoAvionics
Mission
Operational Commercial Communications
Bus & Motor
CUBESAT 6U, Unknown motor
Mass
~10 kg wet, ~10 kg dry
Launch date (UTC)
2024-03-04 (2 years ago)
Launch vehicle
FALCON 9
Launch site
Air Force Western Test Range (AFWTR)
Object type
Payload
Rocket body
Debris
Shape & HBR
Box + 2 Pan, 0.2 m
Radar Cross Section
0.080 m², Medium (>0.1 m² and < 1m²)

Expand to show TLE details & history
Last TLE update: 1 day ago

TLE from 1 day ago
0 TIGER-8
1 59120U 24043Y   26234.85356804  .00008118  00000-0  16975-3 0  9995
2 59120  97.5616  26.1948 0006250 333.6068  26.4861 15.45745957138084
Epoch: 2026-08-22T20:29Z
TLE epoch observation values (Epoch: 2026-08-22T20:29:08.278Z)
Latitude
-0.00007°
Longitude
107.7523°
Altitude
428.499 km
Speed
7.657 km/s
True Right ascension
01h 44m 46s
True Declination
0° 00' 00"
Sunlit
Object was in full shadow at epoch
Visualization orbit readout
Latitude
Unknown
Longitude
Unknown
Altitude
Unknown
Speed
Unknown
Apparent Right ascension
Unknown
Apparent Declination
Unknown
Sunlit
N/A
Visualization observer readout
Local Sidereal Time
15:55:38
Azimuth
Unknown
Elevation
Unknown
Doppler factor
Unknown
Orbital elements
Apogee altitude
430.378 km
Perigee altitude
421.873 km
Semi-major axis
6,804.263 km
Eccentricity
0.00063
Inclination
97.5616°
RAAN
26.1948°
Arg. of periapsis
333.6068°
True anomaly
26.51806°
Mean anomaly
26.4861°
Eccentric anomaly
26.50208°
Mean motion
3.86698 °/min
Orbital period
93.1 mins
BSTAR
0.00016975
Loading maneuver chart data...
Computing Atmospheric mass density...

Documentation

Showing up to 5 results
|